Location: Unspecified
(0.0000°N, 0.0000°E)
Time: 15:13:47
(UTC+00:00)

CUTE-I - Pass Details

Date: 02 June 2019
Orbit: 810 x 825 km, 98.7° (Epoch: 19 June)

Event Time Altitude Azimuth Distance (km) Brightness Sun altitude
Rises 05:17:41 0° 32° (NNE) 3,326 ? -9.3°
Reaches altitude 10° 05:20:17 10° 43° (NE) 2,399 ? -8.7°
Maximum altitude 05:24:52 30° 103° (ESE) 1,438 ? -7.7°
Drops below altitude 10° 05:29:28 10° 162° (SSE) 2,416 ? -6.6°
Sets 05:32:04 0° 173° (S) 3,353 ? -6.0°
